(23849) = 1998 RA19

Discovered at Socorro on 1998-09-14 by LINEAR.

Orbit

Orbit type: Main Belt

Note: WebGL enabled browser required.

epoch2024-03-31.0
epoch JD2460400.5
perihelion date2022-02-10.65076
perihelion JD2459621.15076
argument of perihelion (°)6.40674
ascending node (°)358.78288
inclination (°)12.67617
eccentricity0.0468587
perihelion distance (AU)2.6441113
Tisserand w.r.t. Jupiter3.3
ΔV w.r.t. Earth (km/sec)10.9
semimajor axis (AU)2.7741020
mean anomaly (°)166.24642
mean daily motion (°/day)0.21331440
aphelion distance (AU)2.904
period (years)4.62
P-vector [x]0.99584303
P-vector [y]0.07075324
P-vector [z]0.05736404
Q-vector [x]-0.09096663
Q-vector [y]0.80475969
Q-vector [z]0.58658922
absolute magnitude14.52
phase slope0.15
uncertainty0
referenceMPEC 2024-F50
observations used1521
oppositions21
arc length (days)10278
first opposition used1996
last opposition used2024
residual rms (arc-secs)0.68
perturbers coarse indicatorM-v
perturbers precise indicator003Ek
first observation date used1996-01-28.0
last observation date used2024-03-19.0
computer nameMPCLINUX
JD of orbit computation2456731.569418
perihelion JD uncertainty (days)2.5515E-04
argument of perihelion uncertainty (°)6.0120E-05
ascending node uncertainty (°)2.2167E-05
inclination uncertainty (°)6.7733E-06
eccentricity uncertainty 6.7274E-08
perihelion distance uncertainty (AU)1.8434E-07
Minimum Orbit Intersection Distances (in AU)
for orbit epoch: 2460400.5, reference: E2024-GH2
Mercury2.26386
Venus1.91986
Earth1.64151
Mars1.22374
Jupiter2.31497
Saturn6.34961
Uranus15.5437
Neptune27.1987

Observations

1545 total observations over interval: 1996 01 28.46261 – 2024 03 19.471423
These data are available for download (format description).

Date (UT) J2000 RA J2000 Dec Magn Location Ref
1996 01 28.46261 10 24 09.69 +22 15 45.5 18.8 V 691 – Steward Observatory, Kitt Peak-Spacewatch MPS 80875
1996 01 28.46902 10 24 09.38 +22 15 46.7 18.8 V 691 – Steward Observatory, Kitt Peak-Spacewatch MPS 80875
1996 01 28.47408 10 24 09.12 +22 15 47.7 18.8 V 691 – Steward Observatory, Kitt Peak-Spacewatch MPS 80875
1996 01 29.38563 10 23 24.77 +22 18 36.0   691 – Steward Observatory, Kitt Peak-Spacewatch MPS 23580
1996 01 29.39213 10 23 24.36 +22 18 36.0   691 – Steward Observatory, Kitt Peak-Spacewatch MPS 23580
1996 01 29.39939 10 23 24.05 +22 18 38.2 19.0 V 691 – Steward Observatory, Kitt Peak-Spacewatch MPS 23580
1998 08 19.32550 22 56 12.09 -16 10 32.4 17.8 R 699 – Lowell Observatory-LONEOS MPS 23580
1998 08 19.35286 22 56 10.51 -16 10 34.6   699 – Lowell Observatory-LONEOS MPS 23580
1998 08 19.38020 22 56 09.06 -16 10 36.9   699 – Lowell Observatory-LONEOS MPS 23580
1998 09 14.14880 22 31 26.44 -16 26 19.9 18.8   704 – Lincoln Laboratory ETS, New Mexico MPS 2297
1998 09 14.17075 22 31 25.18 -16 26 16.4 18.9   704 – Lincoln Laboratory ETS, New Mexico MPS 2297
1998 09 14.19271 22 31 23.97 -16 26 16.3 18.2   704 – Lincoln Laboratory ETS, New Mexico MPS 2297
1998 09 14.21480 22 31 22.75 -16 26 15.1 18.9   704 – Lincoln Laboratory ETS, New Mexico MPS 2297
1998 09 14.23685 22 31 21.46 -16 26 14.8 19.2   704 – Lincoln Laboratory ETS, New Mexico MPS 2297
1998 09 18.25092 22 27 52.40 -16 21 54.0 18.9   704 – Lincoln Laboratory ETS, New Mexico MPS 2297
1998 09 18.26377 22 27 51.72 -16 21 53.4 18.7   704 – Lincoln Laboratory ETS, New Mexico MPS 2297
1998 09 18.27666 22 27 51.01 -16 21 51.5 18.7   704 – Lincoln Laboratory ETS, New Mexico MPS 2297
1998 09 18.28951 22 27 50.38 -16 21 53.0 18.7   704 – Lincoln Laboratory ETS, New Mexico MPS 2297
1998 09 18.30232 22 27 49.76 -16 21 50.0 18.7   704 – Lincoln Laboratory ETS, New Mexico MPS 2297
1998 09 22.22523 22 24 41.96 -16 15 25.8 18.5 R 699 – Lowell Observatory-LONEOS MPS 2297
1998 09 22.25003 22 24 40.59 -16 15 24.0   699 – Lowell Observatory-LONEOS MPS 2297
1998 09 22.27484 22 24 39.56 -16 15 21.1   699 – Lowell Observatory-LONEOS MPS 2298
1998 11 11.76712 22 18 26.77 -12 09 01.2 20.7 V 910 – Caussols-ODAS MPS 23580
1998 11 11.79012 22 18 27.43 -12 08 50.7 20.8 V 910 – Caussols-ODAS MPS 23580
1998 11 11.81329 22 18 28.10 -12 08 40.1 21.2 V 910 – Caussols-ODAS MPS 23580
1999 11 01.41317 06 12 19.01 +39 57 42.9 19.4   704 – Lincoln Laboratory ETS, New Mexico MPS 23580
1999 11 01.42967 06 12 18.93 +39 57 48.5 19.6   704 – Lincoln Laboratory ETS, New Mexico MPS 23580
1999 11 01.46267 06 12 18.83 +39 58 00.8 19.3   704 – Lincoln Laboratory ETS, New Mexico MPS 23580
1999 12 13.27623 05 41 15.81 +42 52 23.0 19.4   704 – Lincoln Laboratory ETS, New Mexico MPS 23580
1999 12 13.29087 05 41 14.71 +42 52 24.8 19.2   704 – Lincoln Laboratory ETS, New Mexico MPS 23580
1999 12 13.30543 05 41 13.50 +42 52 24.6 19.2   704 – Lincoln Laboratory ETS, New Mexico MPS 23580
1999 12 13.32003 05 41 12.43 +42 52 24.4 19.3   704 – Lincoln Laboratory ETS, New Mexico MPS 23580
1999 12 13.33463 05 41 11.31 +42 52 25.5 19.1   704 – Lincoln Laboratory ETS, New Mexico MPS 23580
2001 02 22.31983 12 15 03.64 +00 19 27.8 18.8   704 – Lincoln Laboratory ETS, New Mexico MPS 26399
2001 02 22.33393 12 15 03.04 +00 19 28.0 19.2   704 – Lincoln Laboratory ETS, New Mexico MPS 26399
2001 02 22.34800 12 15 02.41 +00 19 29.6 19.0   704 – Lincoln Laboratory ETS, New Mexico MPS 26399
2001 02 22.36213 12 15 01.89 +00 19 29.4 18.9   704 – Lincoln Laboratory ETS, New Mexico MPS 26399
2001 02 22.37619 12 15 01.23 +00 19 30.6 19.1   704 – Lincoln Laboratory ETS, New Mexico MPS 26399
2001 03 02.30523 12 09 06.06 +00 28 06.1 18.6 R 699 – Lowell Observatory-LONEOS MPS 27435
2001 03 02.33018 12 09 04.85 +00 28 08.6   699 – Lowell Observatory-LONEOS MPS 27435
2001 03 02.35514 12 09 03.57 +00 28 10.4   699 – Lowell Observatory-LONEOS MPS 27435
2001 03 02.38014 12 09 02.27 +00 28 12.1   699 – Lowell Observatory-LONEOS MPS 27435
2001 03 18.25172 11 54 45.98 +00 55 47.1 18.0 R 699 – Lowell Observatory-LONEOS MPS 27435
2001 03 18.25265 11 54 45.85 +00 55 46.4 18.4   704 – Lincoln Laboratory ETS, New Mexico MPS 27435
2001 03 18.26557 11 54 45.07 +00 55 47.9 18.1   704 – Lincoln Laboratory ETS, New Mexico MPS 27435
2001 03 18.27851 11 54 44.36 +00 55 49.3 18.3   704 – Lincoln Laboratory ETS, New Mexico MPS 27435
2001 03 18.29147 11 54 43.57 +00 55 50.5 17.9   704 – Lincoln Laboratory ETS, New Mexico MPS 27435
2001 03 18.29243 11 54 43.54 +00 55 50.8   699 – Lowell Observatory-LONEOS MPS 27435
2001 03 18.30439 11 54 42.83 +00 55 52.6 18.2   704 – Lincoln Laboratory ETS, New Mexico MPS 27435
2001 03 18.33296 11 54 41.18 +00 55 55.8   699 – Lowell Observatory-LONEOS MPS 27435
2001 03 18.37358 11 54 38.79 +00 56 00.1   699 – Lowell Observatory-LONEOS MPS 27435
2001 03 20.23508 11 52 53.14 +00 59 35.2 18.4   704 – Lincoln Laboratory ETS, New Mexico MPS 27435
2001 03 20.24765 11 52 52.37 +00 59 36.0 18.7   704 – Lincoln Laboratory ETS, New Mexico MPS 27435
2001 03 20.25999 11 52 51.65 +00 59 38.1 19.0   704 – Lincoln Laboratory ETS, New Mexico MPS 27435
2001 03 20.27345 11 52 50.86 +00 59 38.4 19.1   704 – Lincoln Laboratory ETS, New Mexico MPS 27435
2001 03 20.28579 11 52 50.13 +00 59 40.6 18.7   704 – Lincoln Laboratory ETS, New Mexico MPS 27435
2001 03 24.25179 11 49 05.89 +01 07 09.4 18.5   704 – Lincoln Laboratory ETS, New Mexico MPS 27435
2001 03 24.26461 11 49 05.10 +01 07 11.5 19.1   704 – Lincoln Laboratory ETS, New Mexico MPS 27435
2001 03 24.27743 11 49 04.40 +01 07 12.1 19.1   704 – Lincoln Laboratory ETS, New Mexico MPS 27435
2001 03 24.30303 11 49 02.88 +01 07 15.0 18.8   704 – Lincoln Laboratory ETS, New Mexico MPS 27435
2001 03 25.29845 11 48 07.24 +01 09 04.7 18.8 V 691 – Steward Observatory, Kitt Peak-Spacewatch MPS 27435
2001 03 25.31949 11 48 06.03 +01 09 06.9 18.8 V 691 – Steward Observatory, Kitt Peak-Spacewatch MPS 27435
2001 03 25.34037 11 48 04.83 +01 09 09.1 18.7 V 691 – Steward Observatory, Kitt Peak-Spacewatch MPS 27435
2001 03 29.29816 11 44 27.51 +01 16 02.6 18.7   704 – Lincoln Laboratory ETS, New Mexico MPS 27435
2001 03 29.31401 11 44 26.48 +01 16 05.2 19.5   704 – Lincoln Laboratory ETS, New Mexico MPS 27435
2001 03 29.32937 11 44 25.83 +01 16 06.7 18.8   704 – Lincoln Laboratory ETS, New Mexico MPS 27435
2001 03 29.34458 11 44 25.03 +01 16 07.2 19.0   704 – Lincoln Laboratory ETS, New Mexico MPS 27435
2001 04 01.26112 11 41 50.70 +01 20 42.6 18.6   704 – Lincoln Laboratory ETS, New Mexico MPS 27435
2001 04 01.27553 11 41 49.85 +01 20 43.9 18.8   704 – Lincoln Laboratory ETS, New Mexico MPS 27435
2001 04 01.28994 11 41 49.14 +01 20 45.6 19.4   704 – Lincoln Laboratory ETS, New Mexico MPS 27435
2001 04 01.30446 11 41 48.43 +01 20 46.2 19.4   704 – Lincoln Laboratory ETS, New Mexico MPS 27435
2001 04 01.31891 11 41 47.57 +01 20 48.5 19.2   704 – Lincoln Laboratory ETS, New Mexico MPS 27435
2003 07 29.38446 01 24 42.52 +09 27 59.3 19.5   704 – Lincoln Laboratory ETS, New Mexico MPS 82525
2003 07 29.39556 01 24 42.75 +09 28 04.8 19.3   704 – Lincoln Laboratory ETS, New Mexico MPS 82525
2003 07 29.40641 01 24 43.06 +09 28 09.9 19.0   704 – Lincoln Laboratory ETS, New Mexico MPS 82525
2003 07 29.41704 01 24 43.29 +09 28 13.9 19.3   704 – Lincoln Laboratory ETS, New Mexico MPS 82525
2003 08 04.38830 01 27 13.94 +10 08 31.0 19.3   704 – Lincoln Laboratory ETS, New Mexico MPS 82821
2003 08 04.39894 01 27 14.12 +10 08 34.8 19.8   704 – Lincoln Laboratory ETS, New Mexico MPS 82821
2003 08 04.42015 01 27 14.49 +10 08 44.5 19.8   704 – Lincoln Laboratory ETS, New Mexico MPS 82821
2003 08 04.43079 01 27 14.78 +10 08 48.6 19.4   704 – Lincoln Laboratory ETS, New Mexico MPS 82821
2003 08 28.32282 01 29 00.34 +12 18 16.9 19.6   704 – Lincoln Laboratory ETS, New Mexico MPS 83741
2003 08 28.33639 01 29 00.18 +12 18 21.4 19.3   704 – Lincoln Laboratory ETS, New Mexico MPS 83741
2003 08 28.34901 01 29 00.00 +12 18 25.3 19.7   704 – Lincoln Laboratory ETS, New Mexico MPS 83741
2003 08 28.36114 01 28 59.72 +12 18 27.3 19.3   704 – Lincoln Laboratory ETS, New Mexico MPS 83741
